QFA4332 YSSY-YBBN

Flight info

Callsign QFA4332
Flight time 1h 5m
Altitude 35000
Route TESAT H252 OLSEM Y193 BANDA H252 BN
Aircraft B77W/H-SDE1E2E3FGHIJ2J3J4J5M1RWXY/LB1D1

Departure

Time 2026-05-07 20:55
Airport Sydney Kingsford Smith International Airport (YSSY)

Arrival

Time 2026-05-07 22:00
Airport Brisbane International Airport (YBBN)
Time Latitude Longitude Altitude Speed Heading
2026-05-07 20:17 -33.93767 151.16810 35 ft 0 kts 74°
2026-05-07 20:38 -33.93769 151.16798 35 ft 4 kts 67°
2026-05-07 20:38 -33.93784 151.16772 34 ft 4 kts 44°
2026-05-07 20:39 -33.93797 151.16751 33 ft 2 kts 74°
2026-05-07 20:39 -33.93803 151.16732 35 ft 4 kts 139°
2026-05-07 20:39 -33.93786 151.16726 32 ft 4 kts 167°
2026-05-07 20:39 -33.93766 151.16720 34 ft 0 kts 167°
2026-05-07 20:43 -33.93768 151.16721 31 ft 3 kts 167°
2026-05-07 20:44 -33.93847 151.16745 35 ft 15 kts 163°
2026-05-07 20:44 -33.93914 151.16769 35 ft 14 kts 163°
2026-05-07 20:44 -33.93994 151.16796 35 ft 0 kts 165°
2026-05-07 20:45 -33.93997 151.16797 35 ft 3 kts 165°
2026-05-07 20:46 -33.94048 151.16826 35 ft 8 kts 122°
2026-05-07 20:46 -33.94039 151.16938 35 ft 20 kts 78°
2026-05-07 20:46 -33.94029 151.16981 35 ft 0 kts 73°
2026-05-07 20:46 -33.94029 151.16982 35 ft 1 kts 73°
2026-05-07 20:47 -33.94012 151.17046 34 ft 15 kts 73°
2026-05-07 20:47 -33.93969 151.17219 34 ft 28 kts 73°
2026-05-07 20:47 -33.93952 151.17289 33 ft 0 kts 74°
2026-05-07 20:48 -33.93941 151.17336 32 ft 14 kts 74°
2026-05-07 20:48 -33.93903 151.17499 32 ft 26 kts 74°
2026-05-07 20:48 -33.93850 151.17724 34 ft 17 kts 74°
2026-05-07 20:49 -33.93808 151.17905 35 ft 28 kts 74°
2026-05-07 20:49 -33.93754 151.18136 35 ft 27 kts 75°
2026-05-07 20:49 -33.93693 151.18391 35 ft 37 kts 73°
2026-05-07 20:49 -33.93634 151.18641 35 ft 14 kts 74°
2026-05-07 20:50 -33.93607 151.18764 35 ft 18 kts 76°
2026-05-07 20:50 -33.93601 151.18883 34 ft 10 kts 112°
2026-05-07 20:50 -33.93646 151.18936 33 ft 1 kts 154°
2026-05-07 20:53 -33.93654 151.18940 33 ft 0 kts 158°
2026-05-07 20:54 -33.93734 151.18966 29 ft 17 kts 185°
2026-05-07 20:54 -33.93777 151.18882 30 ft 25 kts 255°
2026-05-07 20:54 -33.93916 151.18287 34 ft 129 kts 254°
2026-05-07 20:55 -33.94232 151.16926 384 ft 195 kts 256°
2026-05-07 20:55 -33.94651 151.15290 1572 ft 206 kts 253°
2026-05-07 20:55 -33.94823 151.13602 2666 ft 216 kts 276°
2026-05-07 20:55 -33.94019 151.11962 3303 ft 246 kts 316°
2026-05-07 20:56 -33.92373 151.11175 4080 ft 269 kts 353°
2026-05-07 20:56 -33.90527 151.11674 4982 ft 280 kts 30°
2026-05-07 20:56 -33.89149 151.13323 5795 ft 285 kts 65°
2026-05-07 20:56 -33.88698 151.15623 6665 ft 283 kts 100°
2026-05-07 20:57 -33.89130 151.17906 7451 ft 283 kts 111°
2026-05-07 20:57 -33.89638 151.20247 8303 ft 295 kts 107°
2026-05-07 20:57 -33.89807 151.22746 9286 ft 308 kts 90°
2026-05-07 20:57 -33.89243 151.25292 10184 ft 325 kts 65°
2026-05-07 20:58 -33.87887 151.27560 10723 ft 348 kts 45°
2026-05-07 20:58 -33.85992 151.29554 10944 ft 375 kts 41°
2026-05-07 20:58 -33.84090 151.31826 11199 ft 405 kts 47°
2026-05-07 20:58 -33.82214 151.34434 11954 ft 419 kts 51°
2026-05-07 20:59 -33.80354 151.37189 12887 ft 429 kts 51°
2026-05-07 20:59 -33.78483 151.40021 13937 ft 437 kts 51°
2026-05-07 20:59 -33.76576 151.42910 14886 ft 443 kts 51°
2026-05-07 20:59 -33.74644 151.45821 15966 ft 444 kts 51°
2026-05-07 21:00 -33.72737 151.48675 17422 ft 434 kts 50°
2026-05-07 21:00 -33.70811 151.51549 18206 ft 449 kts 49°
2026-05-07 21:00 -33.68812 151.54523 18754 ft 464 kts 49°
2026-05-07 21:00 -33.66751 151.57574 19410 ft 475 kts 48°
2026-05-07 21:01 -33.64465 151.60455 20174 ft 479 kts 39°
2026-05-07 21:01 -33.61874 151.62981 21018 ft 481 kts 31°
2026-05-07 21:01 -33.59046 151.65153 21821 ft 485 kts 27°
2026-05-07 21:01 -33.56162 151.67324 22579 ft 493 kts 28°
2026-05-07 21:02 -33.53265 151.69576 23349 ft 497 kts 28°
2026-05-07 21:02 -33.50257 151.71615 24123 ft 497 kts 21°
2026-05-07 21:02 -33.47116 151.73313 24823 ft 495 kts 15°
2026-05-07 21:02 -33.43887 151.74572 25535 ft 491 kts
2026-05-07 21:03 -33.40568 151.75550 26254 ft 492 kts
2026-05-07 21:03 -33.37232 151.76510 26941 ft 495 kts
2026-05-07 21:03 -33.33875 151.77527 27565 ft 499 kts
2026-05-07 21:03 -33.30511 151.78598 28258 ft 501 kts
2026-05-07 21:04 -33.27138 151.79695 28931 ft 503 kts
2026-05-07 21:04 -33.23751 151.80804 29526 ft 506 kts
2026-05-07 21:04 -33.20342 151.81916 30044 ft 509 kts
2026-05-07 21:04 -33.16914 151.83030 30488 ft 511 kts
2026-05-07 21:05 -33.13495 151.84138 31028 ft 510 kts
2026-05-07 21:05 -33.10072 151.85247 31697 ft 504 kts
2026-05-07 21:05 -33.06706 151.86337 32418 ft 498 kts
2026-05-07 21:05 -33.03403 151.87401 32947 ft 497 kts
2026-05-07 21:06 -33.00065 151.88470 33390 ft 497 kts
2026-05-07 21:06 -32.96723 151.89538 33866 ft 496 kts
2026-05-07 21:06 -32.93401 151.90600 34336 ft 494 kts
2026-05-07 21:06 -32.90086 151.91660 34754 ft 492 kts
2026-05-07 21:07 -32.86784 151.92716 35151 ft 490 kts
2026-05-07 21:07 -32.80137 151.94832 35157 ft 493 kts
2026-05-07 21:08 -32.73560 151.96938 35143 ft 486 kts
2026-05-07 21:08 -32.67024 151.99020 35161 ft 486 kts
2026-05-07 21:09 -32.60526 152.01083 35159 ft 487 kts
2026-05-07 21:09 -32.53961 152.03164 35158 ft 488 kts
2026-05-07 21:10 -32.47404 152.05243 35158 ft 488 kts
2026-05-07 21:10 -32.40842 152.07321 35161 ft 488 kts
2026-05-07 21:11 -32.34273 152.09398 35166 ft 489 kts
2026-05-07 21:11 -32.24447 152.12498 35163 ft 490 kts
2026-05-07 21:12 -32.17856 152.14573 35171 ft 489 kts
2026-05-07 21:12 -32.11272 152.16643 35170 ft 490 kts
2026-05-07 21:13 -32.04670 152.18717 35168 ft 491 kts
2026-05-07 21:13 -31.98060 152.20790 35171 ft 491 kts
2026-05-07 21:14 -31.91466 152.22855 35179 ft 490 kts
2026-05-07 21:14 -31.84913 152.24903 35185 ft 490 kts
2026-05-07 21:15 -31.78308 152.26965 35188 ft 490 kts
2026-05-07 21:15 -31.65498 152.30956 35180 ft 489 kts
2026-05-07 21:16 -31.58928 152.32996 35195 ft 489 kts
2026-05-07 21:16 -31.52381 152.35027 35181 ft 489 kts
2026-05-07 21:17 -31.45799 152.37067 35192 ft 489 kts
2026-05-07 21:17 -31.39222 152.39102 35204 ft 489 kts
2026-05-07 21:18 -31.32626 152.41141 35197 ft 490 kts
2026-05-07 21:18 -31.26039 152.43165 35202 ft 489 kts
2026-05-07 21:19 -31.19493 152.45188 35198 ft 489 kts
2026-05-07 21:19 -31.12908 152.47214 35206 ft 488 kts
2026-05-07 21:20 -31.06332 152.49240 35211 ft 488 kts
2026-05-07 21:20 -30.99767 152.51254 35214 ft 488 kts
2026-05-07 21:21 -30.93234 152.53253 35201 ft 487 kts
2026-05-07 21:21 -30.86671 152.55260 35202 ft 487 kts
2026-05-07 21:22 -30.80131 152.57260 35194 ft 485 kts
2026-05-07 21:22 -30.73625 152.59476 35202 ft 489 kts
2026-05-07 21:23 -30.67144 152.61911 35212 ft 489 kts
2026-05-07 21:23 -30.60696 152.64310 35170 ft 490 kts
2026-05-07 21:24 -30.54206 152.66659 35214 ft 488 kts
2026-05-07 21:24 -30.47714 152.69021 35207 ft 490 kts
2026-05-07 21:25 -30.41194 152.71379 35206 ft 491 kts
2026-05-07 21:25 -30.34667 152.73731 35203 ft 491 kts
2026-05-07 21:26 -30.28127 152.76087 35208 ft 492 kts
2026-05-07 21:26 -30.21633 152.78426 35198 ft 492 kts
2026-05-07 21:27 -30.15096 152.80776 35171 ft 491 kts
2026-05-07 21:27 -30.08579 152.83119 35188 ft 490 kts
2026-05-07 21:28 -30.02084 152.85447 35199 ft 488 kts
2026-05-07 21:28 -29.95592 152.87772 35198 ft 488 kts
2026-05-07 21:29 -29.89110 152.90088 35186 ft 487 kts
2026-05-07 21:29 -29.82636 152.92382 35190 ft 486 kts
2026-05-07 21:30 -29.76163 152.94671 35195 ft 487 kts
2026-05-07 21:30 -29.69690 152.96960 35199 ft 487 kts
2026-05-07 21:31 -29.63212 152.99252 35188 ft 487 kts
2026-05-07 21:31 -29.56769 153.01525 35189 ft 487 kts
2026-05-07 21:32 -29.50288 153.03809 35188 ft 487 kts
2026-05-07 21:32 -29.43803 153.06093 35166 ft 487 kts
2026-05-07 21:33 -29.37309 153.08377 35187 ft 487 kts
2026-05-07 21:33 -29.30833 153.10650 35195 ft 486 kts
2026-05-07 21:34 -29.24357 153.12925 35189 ft 487 kts
2026-05-07 21:34 -29.17883 153.15206 35172 ft 487 kts
2026-05-07 21:35 -29.11437 153.17475 35203 ft 487 kts
2026-05-07 21:35 -29.04959 153.19751 35194 ft 487 kts
2026-05-07 21:36 -28.98480 153.22023 35188 ft 487 kts
2026-05-07 21:36 -28.91999 153.24296 35182 ft 486 kts
2026-05-07 21:37 -28.85521 153.26564 35186 ft 486 kts
2026-05-07 21:37 -28.79045 153.28826 35192 ft 486 kts
2026-05-07 21:38 -28.72585 153.31080 35187 ft 486 kts
2026-05-07 21:38 -28.66124 153.33334 35181 ft 485 kts
2026-05-07 21:39 -28.59721 153.35563 35190 ft 484 kts
2026-05-07 21:39 -28.53263 153.37809 35200 ft 484 kts
2026-05-07 21:40 -28.46830 153.40042 35148 ft 482 kts
2026-05-07 21:40 -28.40482 153.42248 34812 ft 469 kts
2026-05-07 21:41 -28.37363 153.43340 34113 ft 470 kts
2026-05-07 21:41 -28.34251 153.44410 33044 ft 476 kts
2026-05-07 21:41 -28.31076 153.45500 32222 ft 478 kts
2026-05-07 21:41 -28.27889 153.46603 31515 ft 477 kts
2026-05-07 21:42 -28.24729 153.47701 30954 ft 472 kts
2026-05-07 21:42 -28.21597 153.48788 30444 ft 467 kts
2026-05-07 21:42 -28.18515 153.49827 29902 ft 455 kts
2026-05-07 21:42 -28.15468 153.50226 29165 ft 429 kts 347°
2026-05-07 21:43 -28.12616 153.49647 28370 ft 411 kts 338°
2026-05-07 21:43 -28.10759 153.49176 27809 ft 414 kts 339°
2026-05-07 21:43 -28.07923 153.48531 27060 ft 416 kts 341°
2026-05-07 21:43 -28.05083 153.47935 26465 ft 414 kts 341°
2026-05-07 21:44 -28.02255 153.47358 25913 ft 411 kts 342°
2026-05-07 21:44 -27.99450 153.46787 25343 ft 409 kts 342°
2026-05-07 21:44 -27.95749 153.46028 24572 ft 407 kts 342°
2026-05-07 21:44 -27.93868 153.45640 24185 ft 406 kts 342°
2026-05-07 21:45 -27.91083 153.45064 23595 ft 406 kts 342°
2026-05-07 21:45 -27.88311 153.44491 22973 ft 404 kts 343°
2026-05-07 21:45 -27.85594 153.43930 22428 ft 401 kts 343°
2026-05-07 21:45 -27.82863 153.43366 21889 ft 397 kts 344°
2026-05-07 21:46 -27.80148 153.42806 21364 ft 395 kts 344°
2026-05-07 21:46 -27.77449 153.42250 20822 ft 393 kts 344°
2026-05-07 21:46 -27.74767 153.41697 20283 ft 391 kts 345°
2026-05-07 21:46 -27.72097 153.41146 19764 ft 389 kts 345°
2026-05-07 21:47 -27.69437 153.40598 19263 ft 387 kts 345°
2026-05-07 21:47 -27.66815 153.40060 18670 ft 378 kts 346°
2026-05-07 21:47 -27.64200 153.39528 17891 ft 384 kts 347°
2026-05-07 21:47 -27.61561 153.39305 17251 ft 387 kts 357°
2026-05-07 21:48 -27.58867 153.39424 16727 ft 386 kts
2026-05-07 21:48 -27.56201 153.39636 16253 ft 383 kts
2026-05-07 21:48 -27.53556 153.39840 15962 ft 374 kts
2026-05-07 21:48 -27.51001 153.40008 15883 ft 360 kts 360°
2026-05-07 21:49 -27.48534 153.40145 15805 ft 347 kts 359°
2026-05-07 21:49 -27.46201 153.40260 15786 ft 332 kts 359°
2026-05-07 21:49 -27.43979 153.40365 15905 ft 310 kts 359°
2026-05-07 21:49 -27.41826 153.40461 15495 ft 309 kts 359°
2026-05-07 21:50 -27.39674 153.40556 15020 ft 310 kts 359°
2026-05-07 21:50 -27.37518 153.40653 14608 ft 310 kts 359°
2026-05-07 21:50 -27.35367 153.40750 14207 ft 309 kts 359°
2026-05-07 21:50 -27.33217 153.40848 13790 ft 308 kts 359°
2026-05-07 21:51 -27.31086 153.40946 13370 ft 303 kts 359°
2026-05-07 21:51 -27.29015 153.41043 12638 ft 295 kts 359°
2026-05-07 21:51 -27.26986 153.41134 11805 ft 295 kts 359°
2026-05-07 21:51 -27.24937 153.41227 10974 ft 294 kts 359°
2026-05-07 21:52 -27.22904 153.41320 10213 ft 291 kts 360°
2026-05-07 21:52 -27.20894 153.41396 9413 ft 286 kts 356°
2026-05-07 21:52 -27.19008 153.40873 8573 ft 276 kts 328°
2026-05-07 21:52 -27.17495 153.39604 7799 ft 269 kts 316°
2026-05-07 21:53 -27.16073 153.38248 7047 ft 267 kts 317°
2026-05-07 21:53 -27.14678 153.36932 6327 ft 264 kts 317°
2026-05-07 21:53 -27.13525 153.35410 5784 ft 247 kts 291°
2026-05-07 21:53 -27.13197 153.33622 5669 ft 228 kts 268°
2026-05-07 21:54 -27.13400 153.31927 5600 ft 213 kts 249°
2026-05-07 21:54 -27.13972 153.30427 5401 ft 206 kts 242°
2026-05-07 21:54 -27.14591 153.28998 5186 ft 201 kts 242°
2026-05-07 21:54 -27.15190 153.27612 4990 ft 197 kts 242°
2026-05-07 21:55 -27.15851 153.26290 4740 ft 192 kts 226°
2026-05-07 21:55 -27.16890 153.25424 4555 ft 188 kts 211°
2026-05-07 21:55 -27.18010 153.24645 4294 ft 189 kts 208°
2026-05-07 21:55 -27.19156 153.23930 4034 ft 189 kts 206°
2026-05-07 21:56 -27.20319 153.23246 3792 ft 189 kts 205°
2026-05-07 21:56 -27.21486 153.22573 3556 ft 188 kts 204°
2026-05-07 21:56 -27.22640 153.21913 3309 ft 186 kts 204°
2026-05-07 21:56 -27.23775 153.21266 3060 ft 187 kts 204°
2026-05-07 21:57 -27.24918 153.20613 2812 ft 190 kts 205°
2026-05-07 21:57 -27.26079 153.19949 2547 ft 186 kts 204°
2026-05-07 21:57 -27.27246 153.19284 2303 ft 189 kts 204°
2026-05-07 21:57 -27.28404 153.18622 2041 ft 188 kts 205°
2026-05-07 21:58 -27.29560 153.17961 1794 ft 184 kts 204°
2026-05-07 21:58 -27.30710 153.17304 1529 ft 184 kts 205°
2026-05-07 21:58 -27.31846 153.16654 1288 ft 183 kts 205°
2026-05-07 21:58 -27.32962 153.16015 1034 ft 176 kts 205°
2026-05-07 21:59 -27.34030 153.15405 795 ft 167 kts 208°
2026-05-07 21:59 -27.35031 153.14832 593 ft 161 kts 208°
2026-05-07 21:59 -27.36025 153.14264 384 ft 159 kts 208°
2026-05-07 21:59 -27.37002 153.13708 175 ft 156 kts 209°
2026-05-07 22:00 -27.37941 153.13159 29 ft 147 kts 209°
2026-05-07 22:00 -27.38723 153.12710 30 ft 104 kts 207°
2026-05-07 22:00 -27.39207 153.12434 27 ft 51 kts 207°
2026-05-07 22:00 -27.39494 153.12268 28 ft 23 kts 207°
2026-05-07 22:01 -27.39576 153.12175 29 ft 17 kts 254°
2026-05-07 22:01 -27.39545 153.12044 25 ft 18 kts 297°
2026-05-07 22:01 -27.39473 153.11937 26 ft 18 kts 343°
2026-05-07 22:01 -27.39358 153.11983 27 ft 18 kts 26°
2026-05-07 22:02 -27.39245 153.12046 25 ft 18 kts 26°
2026-05-07 22:02 -27.39133 153.12110 26 ft 18 kts 28°
2026-05-07 22:02 -27.39028 153.12067 25 ft 18 kts 303°
2026-05-07 22:02 -27.39009 153.12002 26 ft 5 kts 269°
2026-05-07 22:03 -27.39009 153.12000 26 ft 0 kts 269°
2026-05-07 22:03 -27.39009 153.11997 24 ft 1 kts 269°
2026-05-07 22:03 -27.39009 153.11986 23 ft 1 kts 266°
2026-05-07 22:04 -27.39009 153.11985 23 ft 0 kts 266°
2026-05-07 22:04 -27.39013 153.11968 27 ft 4 kts 245°
2026-05-07 22:04 -27.39027 153.11948 27 ft 1 kts 223°
2026-05-07 22:04 -27.39040 153.11934 27 ft 2 kts 219°
2026-05-07 22:05 -27.39044 153.11932 26 ft 0 kts 211°